Content
SEND FEEDBACK

Daily
Averages
Monthly
Summary
United States of America

CAMP QUEZON, GUAM


Home > North America > United States > Guam
Elevation: 269 feet     Latitude: 13 28N     Longitude: 144 48E

WEATHER
 
SELECT A DAY
Number of Records: 209,340;   Date Range: 1/1/95 - 9/20/14
 
SHARE

PRINT THIS DATA

[ ← Previous Day ]
WEATHER ALMANAC - APRIL 25, 2013
[ Next Day → ]
[ °C ]   °F
Weather ElementAverageHighLow
Temperature84.4 °F90 °F (12:54 pm)80.1 °F (1:54 am)
Dewpoint75.2 °F77 °F (7:54 am)73 °F (10:54 am)
Humidity74.5 %87 % (5:54 am)59 % (2:54 pm)
Barometer29.88 in29.95 in (10:14 am)29.82 in (3:54 pm)
Wind Speed9.9 mph18.4 mph (1:54 pm)
Wind Gust21.9 mph (11:54 am)
Weather ElementAverage
Visibility10 mi
Wind DirectionENE (81.2 °)

Weather ElementTotal
Precipitation0.09 in
Cooling Degree Days20.1 (Base 65)
Growing Degree Days35.1 (Base 50)
Averaged from 26 records on April 25, 2013
WEATHER CONDITIONS BREAKOUT
WIND DIRECTION BREAKOUT
WEATHER BY HOUR - APRIL 25, 2013
[ °C ]   °F
Local TimeTemperatureDewpointHumidityBarometerVisibilityWind DirectionWind SpeedGust SpeedPrecipitationEventsConditions
1:54 AM80.1 °F75.0 °F85 %29.87 in10.0 miENE (60°)5.8 mph0.04 inScattered Clouds
2:54 AM80.1 °F75.0 °F85 %29.86 in10.0 miEast (100°)3.5 mphScattered Clouds
3:54 AM81.0 °F75.0 °F82 %29.86 in10.0 miEast (80°)5.8 mphScattered Clouds
4:54 AM81.0 °F75.9 °F85 %29.86 in10.0 miEast (80°)5.8 mphPartly Cloudy
5:54 AM80.1 °F75.9 °F87 %29.88 in10.0 miENE (70°)6.9 mph0.00 inOvercast
6:54 AM81.0 °F75.9 °F85 %29.89 in10.0 miEast (80°)4.6 mphPartly Cloudy
7:54 AM82.9 °F77.0 °F82 %29.91 in10.0 miENE (60°)9.2 mphScattered Clouds
8:54 AM86.0 °F75.9 °F72 %29.93 in10.0 miEast (80°)11.5 mphScattered Clouds
9:54 AM86.0 °F75.9 °F72 %29.93 in10.0 miEast (90°)13.8 mph0.02 inScattered Clouds
10:14 AM87.8 °F75.2 °F66 %29.95 in10.0 miEast (80°)13.8 mphMostly Cloudy
10:21 AM87.8 °F73.4 °F62 %29.95 in10.0 miEast (90°)15.0 mph19.6 mphScattered Clouds
10:54 AM88.0 °F73.0 °F61 %29.91 in10.0 miENE (70°)16.1 mphMostly Cloudy
11:45 AM86.0 °F75.2 °F70 %29.92 in9.0 miEast (100°)9.2 mph0.00 inRainLight Rain
11:54 AM87.1 °F75.9 °F69 %29.89 in10.0 miEast (80°)16.1 mph21.9 mph0.00 inOvercast
12:54 PM90.0 °F75.0 °F61 %29.86 in10.0 miEast (80°)16.1 mphMostly Cloudy
1:54 PM89.1 °F75.0 °F63 %29.84 in10.0 miENE (70°)18.4 mph21.9 mphPartly Cloudy
2:54 PM89.1 °F73.0 °F59 %29.83 in10.0 miEast (90°)13.8 mphScattered Clouds
3:54 PM88.0 °F73.0 °F61 %29.82 in10.0 miEast (100°)13.8 mphScattered Clouds
4:54 PM84.0 °F77.0 °F79 %29.82 in10.0 miESE (110°)6.9 mph0.03 inScattered Clouds
5:54 PM84.0 °F75.9 °F76 %29.83 in10.0 miEast (80°)8.1 mphPartly Cloudy
6:54 PM82.9 °F77.0 °F82 %29.85 in10.0 miEast (80°)6.9 mph0.00 inPartly Cloudy
7:54 PM82.9 °F75.9 °F79 %29.86 in10.0 miENE (70°)8.1 mphClear
8:54 PM82.0 °F75.0 °F79 %29.87 in10.0 miEast (80°)6.9 mphPartly Cloudy
9:54 PM82.0 °F75.0 °F79 %29.88 in10.0 miEast (80°)8.1 mphPartly Cloudy
10:54 PM82.9 °F75.0 °F77 %29.88 in10.0 miENE (70°)8.1 mphClear
11:54 PM82.0 °F75.0 °F79 %29.88 in10.0 miEast (80°)5.8 mphPartly Cloudy
Hourly data recorded from PGUM, located miles away from Camp Quezon, Guam







STORIES FROM OUR PARTNERS